STARLINK-1942, 46794

Orbit data source: Space-Track

STARLINK-1942, 46794 is a payload satellite owned by SpaceX/Seattle (US) in LEO that was launched on Sat, 24 Oct 2020 UTC via an FALCON 9 launch vehicle from the Air Force Eastern Test Range (AFETR). Payload-class satellites include a variety of spacecraft equipped with specific instruments for various scientific and technological missions. These include communications satellites like Starlink; space stations such as the ISS; scientific satellites like the Hubble; Earth observation satellites from companies like Planet Labs, Umbra, and HawkEye 360; GPS; miniature CubeSats for education and research; and military/defense satellites.

Loading next visibility...
Identifier
46794, 2020-074BH
Orbit
LEO
Last TLE update
9 hours ago
Origin
Manufacturer
SpaceX/Seattle
Mission
Operational Commercial Communications
Bus & Motor
STARLINK, Unknown motor
Mass
260 kg wet, ~248 kg dry
Launch date (UTC)
2020-10-24 (5 years ago)
Launch vehicle
FALCON 9
Launch site
Air Force Eastern Test Range (AFETR)
Object type
Payload
Rocket body
Debris
Shape & HBR
Box + 1 Pan, 8.86 m
Radar Cross Section
13.562 m², Large (>1 m²)

Expand to show TLE details & history

TLE from 9 hours ago
0 STARLINK-1942
1 46794U 20074BH  25182.86248743  .00002640  00000-0  19602-3 0  9996
2 46794  53.0563   7.6233 0001574  90.1018 270.0151 15.06411616258878
Epoch: 2025-07-01T20:41Z
TLE epoch observation values (Epoch: 2025-07-01T20:41:58.913Z)
Latitude
-0.00008°
Longitude
136.97592°
Altitude
548.055 km
Speed
7.589 km/s
True Right ascension
00h 30m 29s
True Declination
0° 00' 00"
Sunlit
Object was in daylight at epoch
Visualization orbit readout
Latitude
-53.16734°
Longitude
48.33861°
Altitude
566.749 km
Speed
7.577 km/s
Apparent Right ascension
02h 05m 51s
Apparent Declination
-81° 32' 36"
Sunlit
Object is in full shadow
Visualization observer readout
Local Sidereal Time
17:33:25
Azimuth
170.619° S
Elevation
-44.773°
Doppler factor
1
Orbital elements
Apogee altitude
548.536 km
Perigee altitude
546.356 km
Semi-major axis
6,925.583 km
Eccentricity
0.00016
Inclination
53.0563°
RAAN
7.6233°
Arg. of periapsis
90.1018°
True anomaly
Unknown
Mean anomaly
270.0151°
Eccentric anomaly
Unknown
Mean motion
3.76581 °/min
Orbital period
95.6 mins
BSTAR
0.00019602
Loading maneuver chart data...
Loading SW <> Apogee altitude chart data...

STARLINK-1942 Visibility forecast

Observer location: undefined°, undefined°

Span
Click to sort rows by Start time (UTC) header in descending order
Start Az.
Max El. time (UTC)
Max El. Az.
Max El.
End time (UTC)
End Az.
7 mins2025-07-02 14:21:47.342Z199.131° SSW2025-07-02 14:25:47.342Z118.944° SE30.375°2025-07-02 14:28:47.342Z67.509° E
5 mins2025-07-02 16:02:47.342Z277.128° WNW2025-07-02 16:04:47.342Z324.811° NNW29.656°2025-07-02 16:07:47.342Z30.063° NE
5 mins2025-07-02 21:04:47.342Z337.054° NNW2025-07-02 21:06:47.342Z33.764° NE33.103°2025-07-02 21:09:47.342Z98.628° ESE
5 mins2025-07-02 22:43:47.342Z279.319° WNW2025-07-02 22:45:47.342Z239.798° WSW25.925°2025-07-02 22:48:47.342Z176.003° S
|